Weather History for PAHO - November, 2010

Change the Weather History Date:

Monday, November 15, 2010

  Actual Average Record
Temperature  
Mean Temperature 28 °F -  
Max Temperature 34 °F 33 °F 51 °F (2014)
Min Temperature 21 °F 22 °F -2 °F (1945)
Degree Days  
Heating Degree Days 38    
Moisture  
Dew Point 16 °F    
Average Humidity 62    
Maximum Humidity 75    
Minimum Humidity 46    
Precipitation  
Precipitation 0.00 in - - ()
Sea Level Pressure  
Sea Level Pressure 30.20 in    
Wind  
Wind Speed 13 mph (NW)    
Max Wind Speed 21 mph    
Max Gust Speed 32 mph    
Visibility 10 miles    
Events Snow    
Averages and records for this station are not official NWS values.
T = Trace of Precipitation, MM = Missing Value Source: NWS Daily Summary

Daily Weather History Graph

Daily Weather History Graph

Search for Another Location

Airport or City:

Trip Planner

Search our weather history database for the weather conditions in past years. The results will help you decide how hot, cold, wet, or windy it might be!

Date:

Astronomy

Nov. 15, 2010 Rise Set
Actual Time 9:02 AM AKST 4:38 PM AKST
Civil Twilight 8:13 AM AKST 5:26 PM AKST
Nautical Twilight 7:22 AM AKST 6:17 PM AKST
Astronomical Twilight 6:34 AM AKST 7:06 PM AKST
Moon 2:36 PM AKST (11/15) 1:56 AM AKST (11/15)
Length of Visible Light 9h 12m
Length of Day
7h 35m
Waxing Gibbous, 70% of the Moon is Illuminated
Nov 15
Waxing Gibbous
Nov 21
Full
Nov 28
Last Quarter
Dec 5
New
Dec 13
First Quarter

Hourly Weather History & Observations

Time (AKST) Temp. Windchill Dew Point Humidity Pressure Visibility Wind Dir Wind Speed Gust Speed Precip Events Conditions
12:53 AM 34.0 °F 26.0 °F 24.1 °F 67% 30.10 in 10.0 mi West 10.4 mph 21.9 mph N/A   Overcast
1:53 AM 34.0 °F 24.6 °F 25.0 °F 70% 30.11 in 10.0 mi WSW 13.8 mph - N/A   Overcast
2:53 AM 33.1 °F 24.4 °F 24.1 °F 70% 30.11 in 10.0 mi West 11.5 mph 19.6 mph N/A   Overcast
3:53 AM 32.0 °F 21.2 °F 21.9 °F 66% 30.12 in 10.0 mi West 16.1 mph 24.2 mph N/A   Mostly Cloudy
4:53 AM 30.0 °F 17.2 °F 23.0 °F 75% 30.14 in 10.0 mi WSW 20.7 mph 29.9 mph N/A   Mostly Cloudy
5:02 AM 30.2 °F 18.5 °F 23.0 °F 75% 30.14 in 10.0 mi WSW 17.3 mph 24.2 mph N/A   Overcast
5:10 AM 30.2 °F 18.1 °F 23.0 °F 75% 30.14 in 10.0 mi West 18.4 mph 25.3 mph N/A   Overcast
5:25 AM 30.2 °F 18.1 °F 23.0 °F 75% 30.14 in 10.0 mi WSW 18.4 mph 27.6 mph N/A   Overcast
5:37 AM 30.2 °F 17.8 °F 21.2 °F 69% 30.14 in 10.0 mi West 19.6 mph 29.9 mph N/A   Overcast
5:53 AM 30.0 °F 18.3 °F 21.9 °F 72% 30.15 in 10.0 mi West 17.3 mph 32.2 mph N/A   Overcast
6:53 AM 28.9 °F 16.9 °F 19.9 °F 69% 30.16 in 10.0 mi West 17.3 mph 25.3 mph N/A   Overcast
7:53 AM 28.9 °F 18.6 °F 19.0 °F 67% 30.17 in 10.0 mi WSW 12.7 mph 24.2 mph N/A   Mostly Cloudy
8:53 AM 28.9 °F 22.8 °F 18.0 °F 64% 30.19 in 10.0 mi NW 5.8 mph - N/A   Mostly Cloudy
9:53 AM 28.0 °F 19.3 °F 12.9 °F 53% 30.20 in 10.0 mi North 9.2 mph - N/A   Mostly Cloudy
10:53 AM 27.0 °F 16.7 °F 12.0 °F 53% 30.22 in 10.0 mi NNW 11.5 mph - N/A   Mostly Cloudy
11:53 AM 27.0 °F 16.1 °F 10.9 °F 51% 30.23 in 10.0 mi NNW 12.7 mph - N/A   Scattered Clouds
12:53 PM 28.0 °F 22.8 °F 10.9 °F 49% 30.23 in 10.0 mi NNW 4.6 mph - N/A   Scattered Clouds
1:53 PM 28.9 °F 21.9 °F 12.9 °F 51% 30.23 in 10.0 mi Variable 6.9 mph - N/A   Scattered Clouds
2:53 PM 27.0 °F 16.7 °F 18.0 °F 69% 30.23 in 10.0 mi NNW 11.5 mph 20.7 mph 0.00 in   Overcast
3:53 PM 26.1 °F 15.6 °F 18.0 °F 71% 30.25 in 7.0 mi North 11.5 mph - 0.00 in Snow Light Snow
4:53 PM 25.0 °F 14.2 °F 12.9 °F 60% 30.26 in 10.0 mi North 11.5 mph - 0.00 in   Overcast
5:53 PM 24.1 °F 11.5 °F 9.0 °F 53% 30.27 in 10.0 mi NNE 15.0 mph 24.2 mph N/A   Overcast
6:53 PM 23.0 °F 13.1 °F 9.0 °F 55% 30.27 in 10.0 mi North 9.2 mph - N/A   Overcast
7:53 PM 23.0 °F 13.9 °F 9.0 °F 55% 30.28 in 10.0 mi North 8.1 mph - N/A   Overcast
8:53 PM 21.9 °F 13.4 °F 9.0 °F 58% 30.28 in 10.0 mi North 6.9 mph - N/A   Overcast
9:53 PM 21.9 °F 14.5 °F 8.1 °F 55% 30.28 in 10.0 mi North 5.8 mph - N/A   Overcast
10:53 PM 21.9 °F 10.4 °F 5.0 °F 48% 30.28 in 10.0 mi NE 11.5 mph - N/A   Overcast
11:53 PM 21.9 °F 11.7 °F 3.9 °F 46% 30.28 in 10.0 mi NE 9.2 mph - N/A   Overcast